{"data":{"norad_id":53603,"intl_designator":"2022-104R","name":"STARLINK-4692","alt_names":[],"object_type":"PAYLOAD","status":"ACTIVE","operator":null,"country":"US","launch_date":"2022-08-28","launch_site_code":"AFETR","launch_vehicle":null,"mission":null,"orbit_class":"UNKNOWN","rcs_meters":null,"size_class":null,"mass_kg":null,"dimensions":null,"purposes":["comms"],"wikipedia_slug":null,"has_3d_model":false,"image_url":null,"decayed_at":null,"tle_current":{"epoch":"2026-09-20T22:00:03.000096Z","epoch_age_seconds":42557,"freshness":"FRESH","line1":"1 53603U 22104R   26263.91670139  .00079631  00000+0  45062-2 0  9995","line2":"2 53603  53.1600  82.1820 0002119  70.4409   9.5993 15.12358786  5806","mean_motion":15.12358786,"eccentricity":0.0002119,"inclination_deg":53.16,"raan_deg":82.182,"arg_perigee_deg":70.4409,"mean_anomaly_deg":9.5993,"bstar":0.0045062,"rev_number":580,"period_min":95.215501330119,"perigee_km":527.54510303517,"apogee_km":530.47235139436,"semimajor_km":6907.1457272148,"source":"CELESTRAK","updated_at":"2026-09-21T09:00:32.937745Z"}}}